Regional Weather Roundup
Issued by NWS Upton, NY

Current Version | Previous Version | Graphics & Text | Print | Product List | Glossary Off
Versions: 1 2 3 4 5 6 7 8 9 10 11 12 13 14 15 16 17 18 19 20 21 22 23 24 25 26 27 28 29

000
ASUS41 KOKX 231009
RWROKX

REGIONAL WEATHER ROUNDUP
NATIONAL WEATHER SERVICE NEW YORK NY
500 AM EST THU NOV 23 2017

NOTE: "FAIR" INDICATES FEW OR NO CLOUDS BELOW 12,000 FEET WITH NO
SIGNIFICANT WEATHER AND/OR OBSTRUCTIONS TO VISIBILITY.

NYZ071-072-176-178-NJZ106-104-231100-
NEW YORK CITY METRO AREA

CITY           SKY/WX    TMP DP  RH WIND       PRES   REMARKS
Central Park   CLEAR     32  19  58 MISG      30.10S
Bronx Bot Gard   N/A     32  19  59 NE2       30.09R
Bronx Lehman C   N/A     32  32 100 NW5         N/A  WCI  27
LaGuardia APRT CLEAR     34  22  61 NW14      30.08S WCI  25
Queens College   N/A     32  32 100 NW9         N/A  WCI  24
Kennedy INTL   CLEAR     32  20  61 NW14      30.09S WCI  22
Breezy Point     N/A     32 N/A N/A NW13        N/A  WCI  22
Brooklyn Coll    N/A     34  32  93 NW9         N/A  WCI  26
Staten Island    N/A     32  32 100 NW6         N/A  WCI  26
Newark/Liberty CLEAR     32  18  56 NW10      30.09S WCI  24
Teterboro      CLEAR     32  19  58 NW6       30.08S WCI  26
$$

NYZ177-179-078>081-231100-
LONG ISLAND NEW YORK

CITY           SKY/WX    TMP DP  RH WIND       PRES   REMARKS
Jones Beach      N/A     34 N/A N/A NW14G20     N/A  WCI  24
Wantagh          N/A     32  32 100 NW3         N/A
Matinecock PT    N/A     36 N/A N/A NW13        N/A  WCI  27
Farmingdale    CLEAR     32  21  64 NW6       30.07S WCI  26
MacArthur/ISP  CLEAR     33  24  69 N12       30.05S WCI  24
Shirley        CLEAR     33  25  72 N9        30.05F WCI  25
Mt Sinai Harb    N/A    N/A N/A N/A N13G21      N/A
Westhampton    CLEAR     33  24  69 NW6       30.06S WCI  28
East Hampton   FAIR      33  24  68 N10       30.04S WCI  25
Southold         N/A     36  32  87 NW14        N/A  WCI  27
Montauk          N/A     37  25  61 NW9G20    30.05R WCI  30
$$

NYZ052-065-067-231100-
HUDSON VALLEY

CITY           SKY/WX    TMP DP  RH WIND       PRES   REMARKS
White Plains   PTCLDY    30  20  66 NW13      30.04F WCI  20
Larchmont Harb   N/A     32 N/A N/A NW5         N/A  WCI  27
Croton On Huds   N/A     32 N/A N/A N6          N/A  WCI  26
Somers           N/A     30  32 100 NW5         N/A  WCI  25
Brewster         N/A     30  32 100 N10         N/A  WCI  21
Newburgh       CLEAR    N/A N/A N/A NW9       30.09
Montgomery     CLEAR     29  18  63 NW7       30.06F WCI  22
Suffern          N/A     30  32 100 N5          N/A  WCI  25
Poughkeepsie   CLEAR     24  18  77 NE3       30.08F
Albany         CLOUDY    31  19  61 W12       30.12R WCI  22
$$

NJZ001-105-106-008-010-013-015-019>022-104-231100-
NEW JERSEY

CITY           SKY/WX    TMP DP  RH WIND       PRES   REMARKS
Newark/Liberty CLEAR     32  18  56 NW10      30.09S WCI  24
Teterboro      CLEAR     32  19  58 NW6       30.08S WCI  26
Caldwell       CLEAR     31  18  58 CALM      30.09S
Somerville     CLEAR     29  18  63 NW6       30.09S WCI  23
Linden         FAIR      30  19  63 CALM      30.10S
Perth Amboy      N/A     32 N/A N/A W9          N/A  WCI  24
Sussex         CLEAR     29  17  61 CALM      30.09S
Andover          N/A     28  18  66 N6        30.08F WCI  22
Trenton        CLOUDY    30  18  60 NW5       30.10F WCI  25
Millville      CLEAR     28  24  85 W7        30.14S WCI  21
Atlantic City  CLEAR     27  22  81 W3        30.13S
Wrightstown    CLEAR     28  20  71 W5        30.10R WCI  23
Toms River     CLEAR     27  22  81 W3        30.13R
Belmar         CLEAR     29  20  69 NW5       30.11S WCI  24
$$

PAZ047>061-062-071-231100-
EASTERN PENNSYLVANIA

CITY           SKY/WX    TMP DP  RH WIND       PRES   REMARKS
Philadelphia   CLEAR     32  18  56 NW6       30.15R WCI  26
Allentown      CLOUDY    29  16  58 NW8       30.11S WCI  21
Scranton       CLOUDY    27  17  66 NW6       30.10F WCI  20
$$

CTZ002-004>006-009-010-012-RIZ004-006-007-MAZ004-011-015-231100-
SOUTHERN NEW ENGLAND
 IN CT

CITY           SKY/WX    TMP DP  RH WIND       PRES   REMARKS
Bradley INTL   PTCLDY    29  21  72 NW7       30.06R WCI  22
Hartford       CLEAR     32  22  66 NW6       30.06R WCI  26
Danbury        CLEAR     31  20  63 NW8       30.06F WCI  23
Wtrbury/Oxford CLEAR     29  21  72 N14G22    30.02F WCI  18
Norwalk Harbor   N/A     32 N/A N/A NW9         N/A  WCI  24
Bridgeport     CLEAR     32  22  66 NW9       30.06F WCI  24
Meriden        CLEAR     31  22  69 N5        30.05F WCI  26
New Haven      CLEAR     34  22  61 N9G18     30.05F WCI  27
Chester        FAIR      32  23  69 NW10      30.03R WCI  24
Groton         CLEAR     31  23  72 W3        30.04R
Wilimantic     CLEAR     33  21  61 NW6       30.04R WCI  28

 IN RI

CITY           SKY/WX    TMP DP  RH WIND       PRES   REMARKS
Providence     PTCLDY    32  24  72 W6        30.03R WCI  26
Block Island   CLEAR     35  23  61 NW14G23   30.04R WCI  26
Westerly       CLEAR     33  23  66 CALM      30.04R
 IN MA

CITY           SKY/WX    TMP DP  RH WIND       PRES   REMARKS
Boston         CLEAR     33  22  63 W6        30.01R WCI  28
Worcester      CLEAR     27  17  66 W8        29.98R WCI  19
Westfield      CLEAR     28  20  71 S3        30.06R
Provincetown   CLEAR     36  26  67 NW21      29.98R WCI  25
Nantucket      PTCLDY    37  28  70 NW13G21   30.00R WCI  29
$$

ANZ330-335-338-340-345-350-353-355-231100-
COASTAL MARINE OBSERVATIONS


STATION/POSITION TIME  SKY/WX   TEMP    WIND        PRES    VSBY  WAVE
                                AIR SEA DIR/SP/G                  HT/PER
                 (UTC)          (F)     (DEG/KT/KT) (MB)    (MI)  (FT/S)
NY HARB ENTRANCE 0850            37 56  320/ 19/ 23 1017.6          3/ 4
20 S FIRE ISLAND 0850            38 56  330/ 17/ 21 1017.9          5/10
GREAT SOUTH BAY  0930            35 44  320/ 12/ 14   N/A
HUDSON CANYON    0850            43 58  340/ 14/ 17 1017.3          8/10
KINGS POINT      0948            35 50   20/ 12/ 15 1019.3
EXECUTION ROCKS  0915            35     330/ 12/ 16   N/A
WESTERN LI SOUND 0849            35     310/ 12/ 17   N/A           1
CENTRAL LI SOUND 0900            38     310/ 16/ 21   N/A           2
ROBBINS REEF     0948            33     310/ 10/ 16 1019.4
$$


>>>>>>>>>>>>>>>>>>>>>>>>>>>> KEY <<<<<<<<<<<<<<<<<<<<<<<<<<<
>                                                          <
>     SKY/WX - Sky Condition/Present Weather               <
>     TMP    - Temperature in Fahrenheit                   <
>     DP     - Dew Point in Fahrenheit                     <
>     RH     - Relative Humidity in Percent                <
>     WIND   - Direction (from) and Speed in MPH           <
>     PRES   - Mean Sea Level Pressure (inches of Hg)      <
>     WCI    - Wind Chill Index                            <
>     VSB    - VISIBILITY IN MILES                         <
>     HX     - HEAT INDEX                                  <
>     TC     - TEMPERATURE IN CELSIUS                      <
>     VRB    - VARIABLE WIND DIRECTION                     <
>                                                          <
>>>>>>>>>>>>>>>>>>>>>>>>>>>> KEY <<<<<<<<<<<<<<<<<<<<<<<<<<<




USA.gov is the U.S. government's official web portal to all federal, state and local government web resources and services.